| time (UTC) | temp C | wind direction | speed KPH | gust KPH | rain 1hr cm | rain 24hr cm | rain mn cm | humidity % | barometer mb |
| 20260504081542 | 6 | 226 | 6.4 | 9.7 | 0.00 | 0.00 | 0.00 | 82 | 1015.5 |
| 20260504050104 | 8 | 231 | 1.6 | 6.4 | 0.00 | 0.00 | 0.00 | 73 | 1016.7 |
| 20260504044550 | 8 | 231 | 0.0 | 4.8 | 0.00 | 0.00 | 0.00 | 73 | 1016.9 |
| 20260504043043 | 8 | 218 | 1.6 | 8.0 | 0.00 | 0.00 | 0.00 | 72 | 1016.7 |
| 20260504041545 | 8 | 229 | 3.2 | 4.8 | 0.00 | 0.00 | 0.00 | 72 | 1016.3 |
| 20260504040048 | 8 | 229 | 1.6 | 6.4 | 0.00 | 0.00 | 0.00 | 72 | 1016.4 |
| 20260504034548 | 8 | 0 | 4.8 | 9.7 | 0.00 | 0.00 | 0.00 | 71 | 1016.6 |
| 20260504033052 | 8 | 223 | 4.8 | 8.0 | 0.00 | 0.00 | 0.00 | 70 | 1016.5 |
| 20260504031558 | 8 | 240 | 0.0 | 6.4 | 0.00 | 0.00 | 0.00 | 70 | 1016.4 |
| 20260504030043 | 8 | 224 | 3.2 | 6.4 | 0.00 | 0.00 | 0.00 | 70 | 1016.5 |
| 20260504024554 | 8 | 240 | 1.6 | 8.0 | 0.00 | 0.00 | 0.00 | 69 | 1016.3 |
| 20260504023047 | 8 | 258 | 4.8 | 9.7 | 0.00 | 0.00 | 0.00 | 70 | 1016.0 |
| 20260504021551 | 8 | 233 | 4.8 | 9.7 | 0.00 | 0.00 | 0.00 | 70 | 1016.0 |
| 20260504020047 | 8 | 261 | 6.4 | 9.7 | 0.00 | 0.00 | 0.00 | 69 | 1016.0 |
| 20260504014543 | 8 | 235 | 4.8 | 9.7 | 0.00 | 0.00 | 0.00 | 68 | 1016.0 |
| 20260504013047 | 9 | 227 | 3.2 | 8.0 | 0.00 | 0.00 | 0.00 | 67 | 1016.0 |
| 20260504011546 | 10 | 225 | 3.2 | 12.9 | 0.00 | 0.00 | 0.00 | 64 | 1015.9 |
| 20260504010049 | 10 | 219 | 3.2 | 6.4 | 0.00 | 0.00 | 0.00 | 64 | 1015.6 |
| 20260504004556 | 11 | 222 | 6.4 | 14.5 | 0.00 | 0.00 | 0.00 | 60 | 1015.6 |
| 20260504003042 | 11 | 240 | 6.4 | 16.1 | 0.00 | 0.00 | 0.00 | 57 | 1015.6 |
| 20260504001543 | 12 | 228 | 6.4 | 14.5 | 0.00 | 0.00 | 0.00 | 53 | 1015.4 |
| 20260504000050 | 12 | 210 | 4.8 | 11.3 | 0.00 | 0.00 | 0.00 | 53 | 1015.3 |
| 20260503234542 | 13 | 240 | 3.2 | 9.7 | 0.00 | 0.00 | 0.00 | 48 | 1015.5 |
| 20260503233041 | 14 | 222 | 3.2 | 8.0 | 0.00 | 0.00 | 0.00 | 42 | 1015.6 |
| 20260503231554 | 16 | 240 | 0.0 | 6.4 | 0.00 | 0.00 | 0.00 | 35 | 1015.6 |
| 20260503230051 | 17 | 0 | 1.6 | 9.7 | 0.00 | 0.00 | 0.00 | 30 | 1015.6 |
| 20260503224546 | 17 | 311 | 1.6 | 11.3 | 0.00 | 0.00 | 0.00 | 31 | 1015.7 |
| 20260503223043 | 17 | 288 | 3.2 | 9.7 | 0.00 | 0.00 | 0.00 | 29 | 1015.7 |
| 20260503221543 | 17 | 226 | 4.8 | 12.9 | 0.00 | 0.00 | 0.00 | 29 | 1015.9 |
| 20260503220056 | 17 | 235 | 4.8 | 16.1 | 0.00 | 0.00 | 0.00 | 29 | 1015.9 |
| 20260503214546 | 17 | 206 | 8.0 | 14.5 | 0.00 | 0.00 | 0.00 | 27 | 1015.9 |
| 20260503213049 | 17 | 312 | 8.0 | 17.7 | 0.00 | 0.00 | 0.00 | 28 | 1015.9 |
| 20260503211553 | 17 | 167 | 3.2 | 19.3 | 0.00 | 0.00 | 0.00 | 28 | 1016.0 |
| 20260503210051 | 17 | 297 | 4.8 | 16.1 | 0.00 | 0.00 | 0.00 | 28 | 1016.1 |
| 20260503204548 | 17 | 235 | 1.6 | 16.1 | 0.00 | 0.00 | 0.00 | 28 | 1016.3 |
| 20260503203051 | 17 | 212 | 3.2 | 14.5 | 0.00 | 0.00 | 0.00 | 28 | 1016.8 |
| 20260503201542 | 17 | 0 | 3.2 | 12.9 | 0.00 | 0.00 | 0.00 | 28 | 1016.8 |
| 20260503200041 | 16 | 127 | 3.2 | 14.5 | 0.00 | 0.00 | 0.00 | 29 | 1017.2 |
| 20260503194550 | 17 | 311 | 8.0 | 16.1 | 0.00 | 0.00 | 0.00 | 29 | 1017.4 |
| 20260503193055 | 16 | 185 | 6.4 | 16.1 | 0.00 | 0.00 | 0.00 | 29 | 1017.8 |
| 20260503191543 | 16 | 64 | 3.2 | 16.1 | 0.00 | 0.00 | 0.00 | 30 | 1017.9 |
| 20260503190047 | 16 | 298 | 6.4 | 16.1 | 0.00 | 0.00 | 0.00 | 29 | 1018.3 |
| 20260503184555 | 15 | 122 | 3.2 | 12.9 | 0.00 | 0.00 | 0.00 | 29 | 1018.8 |
| 20260503183047 | 15 | 258 | 6.4 | 19.3 | 0.00 | 0.00 | 0.00 | 31 | 1019.0 |
| 20260503181542 | 16 | 291 | 4.8 | 11.3 | 0.00 | 0.00 | 0.00 | 35 | 1019.1 |
| 20260503180042 | 14 | 28 | 4.8 | 14.5 | 0.00 | 0.00 | 0.00 | 33 | 1019.3 |
| 20260503174603 | 14 | 91 | 4.8 | 17.7 | 0.00 | 0.00 | 0.00 | 33 | 1019.4 |
| 20260503173048 | 14 | 315 | 3.2 | 11.3 | 0.00 | 0.00 | 0.00 | 32 | 1019.6 |
| 20260503171546 | 14 | 202 | 6.4 | 17.7 | 0.00 | 0.00 | 0.00 | 32 | 1020.0 |